User: anonymous
Location: Caltech
(34.1382°N, 118.1253°W)
Time: 01:11:00
(UTC-07:00)
Language:

Iridium 12 - Orbit

View from above orbital plane
View from above orbital plane
View from above satellite
View from above satellite

Ground track
Ground track

The orbit data is extracted from the following two-line orbital elements,

1 24837U 97030B   14273.46397891  .00000548  00000-0  18872-3 0   118
2 24837 086.3977 044.2235 0002210 111.9009 315.2169 14.34219535904942
Epoch (UTC): 30 September 2014 11:08:07
Eccentricity: 0.0002210
inclination: 86.3977°
perigee height: 776 km
apogee height: 779 km
right ascension of ascending node: 44.2235°
argument of perigee: 111.9009°
revolutions per day: 14.34219535
mean anomaly at epoch: 315.2169°
orbit number at epoch: 90494

The dashed part of the orbit path shows where the satellite is in the earth's shadow,  

DLR